ATLAS 5 CENTAUR DEB, 44015

Orbit data source: Space-Track

ATLAS 5 CENTAUR DEB, 44015 is space debris in HEO originally from a launch on Wed, 17 Sep 2014 UTC launched from the Air Force Eastern Test Range (AFETR). Debris objects in space refer to the collection of defunct objects orbiting the Earth. Examples of debris include non-operational satellites, rocket bodies, and fragments generated from explosions, collisions, or faulty payload assembly.

Loading next visibility...
Identifier
44015, 2014-055BW
Orbit
HEO
Country
Flag of USUS
Related business
Flag of USUnited Launch Alliance/Lockheed Martin (US)
Manufacturer
Unknown
Mission
Spacecraft
Bus & Motor
Unknown
Mass
Unknown
Launch date (UTC)
2014-09-17 (12 years ago)
Launch vehicle
Unknown
Launch site
Air Force Eastern Test Range (AFETR)
Object type
Payload
Rocket body
Debris
Shape & HBR
Unknown shape, 1.1 m
Radar Cross Section
RCS unknown

Expand to show TLE details & history
Last TLE update: 1 day ago

TLE from 1 day ago
0 ATLAS 5 CENTAUR DEB
1 44015U 14055BW  26132.90256200  .00000149  00000-0  00000+0 0  9990
2 44015  21.1588  90.2604 5072366 262.0915  39.9914  1.95144493 53874
Epoch: 2026-05-12T21:39Z
TLE epoch observation values (Epoch: 2026-05-12T21:39:41.356Z)
Latitude
-0.00005°
Longitude
-105.41195°
Altitude
15,198.428 km
Speed
4.713 km/s
True Right ascension
06h 00m 43s
True Declination
0° 00' 00"
Sunlit
Object was in daylight at epoch
Visualization orbit readout
Latitude
Unknown
Longitude
Unknown
Altitude
Unknown
Speed
Unknown
Apparent Right ascension
Unknown
Apparent Declination
Unknown
Sunlit
N/A
Visualization observer readout
Local Sidereal Time
06:33:34
Azimuth
Unknown
Elevation
Unknown
Doppler factor
Unknown
Orbital elements
Apogee altitude
34,395.445 km
Perigee altitude
6,952.039 km
Semi-major axis
27,051.879 km
Eccentricity
0.50724
Inclination
21.1588°
RAAN
90.2604°
Arg. of periapsis
262.0915°
True anomaly
98.01002°
Mean anomaly
39.9914°
Eccentric anomaly
66.67969°
Mean motion
0.48781 °/min
Orbital period
738 mins
BSTAR
0
Loading maneuver chart data...
Computing Atmospheric mass density...

Documentation

Showing up to 5 results
|